Location: Kampung Segan
(3.1399°N, 113.1002°E)
Time: 06:38:35
(UTC+00:00)

MOS 1-B Rocket - Pass Details

Date: 17 October 2025
Orbit: 891 x 1603 km, 99.0° (Epoch: 17 November)

Event Time Altitude Azimuth Distance (km) Brightness Sun altitude
Rises 20:17:08 0° 11° (N) 4,605 7.5 -29.0°
Reaches altitude 10° 20:19:53 10° 10° (N) 3,687 7.0 -28.4°
Maximum altitude 20:28:50 81° 284° (WNW) 1,615 4.9 -26.2°
Drops below altitude 10° 20:38:04 10° 197° (SSW) 3,790 7.0 -23.9°
Sets 20:40:56 0° 196° (SSW) 4,740 7.5 -23.2°
